| time (UTC) | temp F | wind direction | speed MPH | gust MPH | rain 1hr in | rain 24hr in | rain mn in | humidity % | barometer mb |
| 20260509185336 | 70 | 108 | 0.0 | 0.0 | 0.00 | 0.00 | 0.00 | 28 | 998.3 |
| 20260509184317 | 70 | 108 | 0.0 | 0.0 | 0.00 | 0.00 | 0.00 | 28 | 998.1 |
| 20260509183331 | 70 | 108 | 0.0 | 0.0 | 0.00 | 0.00 | 0.00 | 28 | 998.0 |
| 20260509182335 | 70 | 108 | 0.0 | 0.0 | 0.00 | 0.00 | 0.00 | 28 | 998.0 |
| 20260509181356 | 70 | 108 | 0.0 | 0.0 | 0.00 | 0.00 | 0.00 | 29 | 997.9 |
| 20260509180338 | 70 | 108 | 0.0 | 0.0 | 0.00 | 0.00 | 0.00 | 29 | 997.8 |
| 20260509175332 | 62 | 108 | 0.0 | 1.0 | 0.00 | 0.00 | 0.00 | 29 | 997.7 |
| 20260509174354 | 62 | 45 | 0.0 | 3.0 | 0.00 | 0.00 | 0.00 | 30 | 997.7 |
| 20260509173332 | 62 | 286 | 0.0 | 1.0 | 0.00 | 0.00 | 0.00 | 30 | 997.6 |
| 20260509172314 | 63 | 326 | 0.0 | 4.0 | 0.00 | 0.00 | 0.00 | 30 | 997.5 |
| 20260509171315 | 63 | 222 | 0.0 | 1.0 | 0.00 | 0.00 | 0.00 | 31 | 997.5 |
| 20260509170316 | 63 | 325 | 0.0 | 1.0 | 0.00 | 0.00 | 0.00 | 31 | 997.5 |
| 20260509165333 | 63 | 295 | 0.0 | 4.0 | 0.00 | 0.00 | 0.00 | 30 | 997.5 |
| 20260509164314 | 63 | 54 | 0.0 | 2.0 | 0.00 | 0.00 | 0.00 | 30 | 997.4 |
| 20260509163335 | 63 | 96 | 0.0 | 3.0 | 0.00 | 0.00 | 0.00 | 30 | 997.4 |
| 20260509162336 | 63 | 71 | 0.0 | 2.0 | 0.00 | 0.00 | 0.00 | 30 | 997.4 |
| 20260509161318 | 63 | 301 | 0.0 | 2.0 | 0.00 | 0.00 | 0.00 | 30 | 997.3 |
| 20260509160314 | 63 | 326 | 1.0 | 3.0 | 0.00 | 0.00 | 0.00 | 30 | 997.2 |
| 20260509155336 | 63 | 314 | 1.0 | 3.0 | 0.00 | 0.00 | 0.00 | 29 | 997.2 |
| 20260509154339 | 64 | 307 | 1.0 | 5.0 | 0.00 | 0.00 | 0.00 | 29 | 997.1 |
| 20260509153315 | 64 | 321 | 1.0 | 5.0 | 0.00 | 0.00 | 0.00 | 28 | 997.2 |
| 20260509152316 | 64 | 314 | 1.0 | 5.0 | 0.00 | 0.00 | 0.00 | 28 | 997.2 |
| 20260509151315 | 64 | 7 | 2.0 | 4.0 | 0.00 | 0.00 | 0.00 | 27 | 997.3 |
| 20260509150317 | 64 | 307 | 1.0 | 4.0 | 0.00 | 0.00 | 0.00 | 27 | 997.3 |
| 20260509145329 | 64 | 321 | 3.0 | 6.0 | 0.00 | 0.00 | 0.00 | 27 | 997.2 |
| 20260509144332 | 65 | 329 | 2.0 | 8.0 | 0.00 | 0.00 | 0.00 | 26 | 997.2 |
| 20260509143332 | 65 | 333 | 2.0 | 6.0 | 0.00 | 0.00 | 0.00 | 25 | 997.1 |
| 20260509142332 | 65 | 64 | 1.0 | 5.0 | 0.00 | 0.00 | 0.00 | 25 | 996.9 |
| 20260509141336 | 65 | 315 | 0.0 | 8.0 | 0.00 | 0.00 | 0.00 | 24 | 996.9 |
| 20260509140338 | 66 | 297 | 2.0 | 7.0 | 0.00 | 0.00 | 0.00 | 23 | 996.7 |
| 20260509135337 | 66 | 329 | 1.0 | 5.0 | 0.00 | 0.00 | 0.00 | 22 | 996.6 |
| 20260509134355 | 66 | 352 | 2.0 | 5.0 | 0.00 | 0.00 | 0.00 | 21 | 996.5 |
| 20260509133329 | 67 | 338 | 1.0 | 4.0 | 0.00 | 0.00 | 0.00 | 20 | 996.5 |
| 20260509132338 | 67 | 333 | 0.0 | 5.0 | 0.00 | 0.00 | 0.00 | 20 | 996.4 |
| 20260509131339 | 67 | 330 | 1.0 | 3.0 | 0.00 | 0.00 | 0.00 | 20 | 996.3 |
| 20260509130341 | 67 | 356 | 0.0 | 3.0 | 0.00 | 0.00 | 0.00 | 19 | 996.1 |
| 20260509125337 | 67 | 334 | 0.0 | 3.0 | 0.00 | 0.00 | 0.00 | 19 | 996.1 |
| 20260509124340 | 67 | 326 | 0.0 | 2.0 | 0.00 | 0.00 | 0.00 | 18 | 996.0 |
| 20260509123314 | 67 | 269 | 0.0 | 1.0 | 0.00 | 0.00 | 0.00 | 18 | 995.9 |
| 20260509122318 | 68 | 274 | 0.0 | 0.0 | 0.00 | 0.00 | 0.00 | 17 | 995.9 |
| 20260509121319 | 68 | 275 | 0.0 | 1.0 | 0.00 | 0.00 | 0.00 | 17 | 995.8 |
| 20260509120319 | 68 | 321 | 0.0 | 3.0 | 0.00 | 0.00 | 0.00 | 17 | 995.8 |
| 20260509115313 | 68 | 320 | 0.0 | 5.0 | 0.00 | 0.00 | 0.00 | 17 | 995.7 |
| 20260509114315 | 68 | 332 | 0.0 | 0.0 | 0.00 | 0.00 | 0.00 | 17 | 995.6 |
| 20260509113323 | 68 | 67 | 2.0 | 4.0 | 0.00 | 0.00 | 0.00 | 16 | 995.6 |
| 20260509112322 | 68 | 319 | 0.0 | 2.0 | 0.00 | 0.00 | 0.00 | 16 | 995.4 |
| 20260509111324 | 69 | 276 | 0.0 | 1.0 | 0.00 | 0.00 | 0.00 | 17 | 995.3 |
| 20260509110346 | 69 | 333 | 0.0 | 5.0 | 0.00 | 0.00 | 0.00 | 16 | 995.2 |
| 20260509105320 | 69 | 320 | 1.0 | 7.0 | 0.00 | 0.00 | 0.00 | 16 | 995.2 |
| 20260509104320 | 69 | 323 | 1.0 | 7.0 | 0.00 | 0.00 | 0.00 | 16 | 994.9 |
| 20260509103322 | 69 | 324 | 1.0 | 5.0 | 0.00 | 0.00 | 0.00 | 16 | 994.7 |
| 20260509102322 | 69 | 297 | 2.0 | 6.0 | 0.00 | 0.00 | 0.00 | 16 | 994.5 |
| 20260509101326 | 70 | 293 | 1.0 | 3.0 | 0.00 | 0.00 | 0.00 | 16 | 994.2 |
| 20260509100322 | 70 | 281 | 2.0 | 5.0 | 0.00 | 0.00 | 0.00 | 16 | 994.0 |
| 20260509095339 | 70 | 66 | 1.0 | 7.0 | 0.00 | 0.00 | 0.00 | 16 | 994.0 |
| 20260509094319 | 70 | 320 | 2.0 | 9.0 | 0.00 | 0.00 | 0.00 | 16 | 993.9 |
| 20260509093341 | 71 | 121 | 0.0 | 4.0 | 0.00 | 0.00 | 0.00 | 16 | 993.7 |
| 20260509092322 | 71 | 354 | 1.0 | 5.0 | 0.00 | 0.00 | 0.00 | 16 | 993.5 |
| 20260509091321 | 71 | 233 | 1.0 | 6.0 | 0.00 | 0.00 | 0.00 | 15 | 993.3 |
| 20260509090323 | 72 | 44 | 1.0 | 6.0 | 0.00 | 0.00 | 0.00 | 15 | 993.1 |
| 20260509085337 | 72 | 290 | 1.0 | 11.0 | 0.00 | 0.00 | 0.00 | 15 | 993.1 |
| 20260509084319 | 73 | 316 | 4.0 | 6.0 | 0.00 | 0.00 | 0.00 | 14 | 992.9 |
| 20260509083348 | 73 | 329 | 1.0 | 7.0 | 0.00 | 0.00 | 0.00 | 14 | 992.7 |
| 20260509082334 | 74 | 266 | 1.0 | 7.0 | 0.00 | 0.00 | 0.00 | 15 | 992.5 |
| 20260509081357 | 73 | 329 | 2.0 | 8.0 | 0.00 | 0.00 | 0.00 | 15 | 992.5 |
| 20260509080336 | 73 | 170 | 1.0 | 12.0 | 0.00 | 0.00 | 0.00 | 15 | 992.3 |
| 20260509075331 | 74 | 169 | 2.0 | 10.0 | 0.00 | 0.00 | 0.00 | 15 | 992.1 |
| 20260509074333 | 74 | 323 | 2.0 | 10.0 | 0.00 | 0.00 | 0.00 | 15 | 991.9 |
| 20260509073332 | 74 | 329 | 2.0 | 16.0 | 0.00 | 0.00 | 0.00 | 15 | 991.7 |
| 20260509072315 | 75 | 60 | 2.0 | 10.0 | 0.00 | 0.00 | 0.00 | 15 | 991.5 |
| 20260509071318 | 75 | 319 | 3.0 | 11.0 | 0.00 | 0.00 | 0.00 | 15 | 991.5 |
| 20260509070318 | 75 | 316 | 4.0 | 11.0 | 0.00 | 0.00 | 0.00 | 16 | 991.3 |
| 20260509065313 | 75 | 322 | 3.0 | 13.0 | 0.00 | 0.00 | 0.00 | 16 | 990.9 |
| 20260509064331 | 75 | 301 | 3.0 | 10.0 | 0.00 | 0.00 | 0.00 | 16 | 990.9 |
| 20260509063352 | 75 | 321 | 3.0 | 10.0 | 0.00 | 0.00 | 0.00 | 16 | 990.9 |
| 20260509062353 | 75 | 338 | 4.0 | 10.0 | 0.00 | 0.00 | 0.00 | 16 | 990.9 |
| 20260509061314 | 74 | 127 | 3.0 | 17.0 | 0.00 | 0.00 | 0.00 | 18 | 990.9 |
| 20260509060316 | 74 | 150 | 3.0 | 10.0 | 0.00 | 0.00 | 0.00 | 18 | 990.8 |
| 20260509055313 | 74 | 248 | 2.0 | 13.0 | 0.00 | 0.00 | 0.00 | 18 | 990.6 |
| 20260509054313 | 74 | 299 | 3.0 | 11.0 | 0.00 | 0.00 | 0.00 | 18 | 990.8 |
| 20260509053314 | 74 | 274 | 2.0 | 9.0 | 0.00 | 0.00 | 0.00 | 19 | 990.7 |
| 20260509052335 | 74 | 295 | 6.0 | 14.0 | 0.00 | 0.00 | 0.00 | 19 | 990.8 |
| 20260509051316 | 74 | 345 | 4.0 | 20.0 | 0.00 | 0.00 | 0.00 | 19 | 990.7 |
| 20260509050339 | 74 | 108 | 2.0 | 11.0 | 0.00 | 0.00 | 0.00 | 20 | 990.7 |
| 20260509045400 | 74 | 124 | 4.0 | 11.0 | 0.00 | 0.00 | 0.00 | 20 | 990.7 |
| 20260509044333 | 74 | 338 | 4.0 | 10.0 | 0.00 | 0.00 | 0.00 | 20 | 990.6 |
| 20260509043335 | 74 | 352 | 3.0 | 15.0 | 0.00 | 0.00 | 0.00 | 20 | 990.6 |
| 20260509042317 | 73 | 276 | 4.0 | 17.0 | 0.00 | 0.00 | 0.00 | 21 | 990.6 |
| 20260509041321 | 72 | 322 | 5.0 | 18.0 | 0.00 | 0.00 | 0.00 | 22 | 990.6 |
| 20260509040320 | 73 | 298 | 5.0 | 16.0 | 0.00 | 0.00 | 0.00 | 21 | 990.8 |
| 20260509035317 | 73 | 246 | 1.0 | 12.0 | 0.00 | 0.00 | 0.00 | 22 | 990.8 |
| 20260509034340 | 73 | 335 | 3.0 | 9.0 | 0.00 | 0.00 | 0.00 | 23 | 990.9 |
| 20260509033315 | 72 | 331 | 4.0 | 14.0 | 0.00 | 0.00 | 0.00 | 23 | 991.0 |
| 20260509032339 | 72 | 351 | 4.0 | 12.0 | 0.00 | 0.00 | 0.00 | 22 | 990.9 |
| 20260509031325 | 72 | 284 | 4.0 | 15.0 | 0.00 | 0.00 | 0.00 | 21 | 990.8 |
| 20260509030327 | 72 | 329 | 7.0 | 17.0 | 0.00 | 0.00 | 0.00 | 22 | 990.8 |
| 20260509025322 | 71 | 290 | 5.0 | 20.0 | 0.00 | 0.00 | 0.00 | 23 | 990.8 |
| 20260509024320 | 72 | 305 | 5.0 | 20.0 | 0.00 | 0.00 | 0.00 | 23 | 990.8 |
| 20260509023342 | 71 | 347 | 4.0 | 21.0 | 0.00 | 0.00 | 0.00 | 24 | 990.7 |
| 20260509022321 | 72 | 329 | 4.0 | 12.0 | 0.00 | 0.00 | 0.00 | 24 | 990.7 |
| 20260509021320 | 71 | 345 | 6.0 | 14.0 | 0.00 | 0.00 | 0.00 | 24 | 990.8 |
| 20260509020323 | 71 | 332 | 8.0 | 23.0 | 0.00 | 0.00 | 0.00 | 25 | 990.9 |
| 20260509015318 | 71 | 90 | 5.0 | 16.0 | 0.00 | 0.00 | 0.00 | 26 | 990.8 |
| 20260509014322 | 70 | 345 | 4.0 | 18.0 | 0.00 | 0.00 | 0.00 | 26 | 990.9 |
| 20260509013323 | 70 | 333 | 5.0 | 18.0 | 0.00 | 0.00 | 0.00 | 26 | 990.9 |
| 20260509012327 | 70 | 343 | 4.0 | 16.0 | 0.00 | 0.00 | 0.00 | 27 | 991.0 |
| 20260509011327 | 70 | 291 | 7.0 | 21.0 | 0.00 | 0.00 | 0.00 | 27 | 990.7 |
| 20260509010327 | 70 | 298 | 5.0 | 15.0 | 0.00 | 0.00 | 0.00 | 26 | 990.4 |
| 20260509005330 | 70 | 318 | 5.0 | 16.0 | 0.00 | 0.00 | 0.00 | 25 | 990.3 |
| 20260509004326 | 69 | 89 | 5.0 | 17.0 | 0.00 | 0.00 | 0.00 | 25 | 990.1 |
| 20260509003314 | 69 | 57 | 5.0 | 15.0 | 0.00 | 0.00 | 0.00 | 23 | 989.9 |
| 20260509002316 | 69 | 287 | 4.0 | 10.0 | 0.00 | 0.00 | 0.00 | 23 | 989.8 |
| 20260509001317 | 69 | 30 | 3.0 | 11.0 | 0.00 | 0.00 | 0.00 | 22 | 989.7 |
| 20260509000320 | 69 | 314 | 2.0 | 10.0 | 0.00 | 0.00 | 0.00 | 21 | 989.7 |
| 20260508235315 | 69 | 242 | 3.0 | 12.0 | 0.00 | 0.00 | 0.00 | 21 | 989.5 |
| 20260508234319 | 70 | 342 | 3.0 | 8.0 | 0.00 | 0.00 | 0.00 | 20 | 989.5 |
| 20260508233319 | 69 | 329 | 1.0 | 4.0 | 0.00 | 0.00 | 0.00 | 20 | 989.4 |
| 20260508232322 | 69 | 340 | 0.0 | 8.0 | 0.00 | 0.00 | 0.00 | 21 | 989.3 |
| 20260508231345 | 68 | 12 | 2.0 | 8.0 | 0.00 | 0.00 | 0.00 | 20 | 989.0 |
| 20260508230324 | 68 | 70 | 1.0 | 7.0 | 0.00 | 0.00 | 0.00 | 20 | 988.8 |
| 20260508225340 | 68 | 301 | 0.0 | 4.0 | 0.00 | 0.00 | 0.00 | 19 | 988.7 |
| 20260508224322 | 68 | 320 | 2.0 | 6.0 | 0.00 | 0.00 | 0.00 | 20 | 988.8 |
| 20260508223318 | 68 | 319 | 1.0 | 3.0 | 0.00 | 0.00 | 0.00 | 20 | 988.6 |
| 20260508222327 | 67 | 285 | 0.0 | 3.0 | 0.00 | 0.00 | 0.00 | 21 | 988.4 |
| 20260508221322 | 67 | 323 | 0.0 | 2.0 | 0.00 | 0.00 | 0.00 | 21 | 988.3 |
| 20260508220351 | 65 | 295 | 1.0 | 4.0 | 0.00 | 0.00 | 0.00 | 22 | 988.0 |
| 20260508215316 | 65 | 315 | 1.0 | 4.0 | 0.00 | 0.00 | 0.00 | 22 | 987.9 |
| 20260508214313 | 65 | 320 | 0.0 | 2.0 | 0.00 | 0.00 | 0.00 | 22 | 987.7 |
| 20260508213316 | 65 | 314 | 0.0 | 1.0 | 0.00 | 0.00 | 0.00 | 22 | 987.5 |
| 20260508212319 | 64 | 326 | 0.0 | 5.0 | 0.00 | 0.00 | 0.00 | 22 | 987.3 |
| 20260508211323 | 64 | 326 | 1.0 | 5.0 | 0.00 | 0.00 | 0.00 | 22 | 987.2 |
| 20260508210323 | 65 | 294 | 0.0 | 2.0 | 0.00 | 0.00 | 0.00 | 21 | 986.9 |
| 20260508205338 | 70 | 108 | 0.0 | 5.0 | 0.00 | 0.00 | 0.00 | 40 | 986.7 |
| 20260508203327 | 70 | 108 | 0.0 | 0.0 | 0.00 | 0.00 | 0.00 | 42 | 986.3 |
| 20260508202329 | 70 | 108 | 0.0 | 0.0 | 0.00 | 0.00 | 0.00 | 40 | 986.3 |
| 20260508201331 | 70 | 108 | 0.0 | 0.0 | 0.00 | 0.00 | 0.00 | 40 | 986.2 |
| 20260508200332 | 70 | 108 | 0.0 | 0.0 | 0.00 | 0.00 | 0.00 | 40 | 985.9 |
| 20260508195321 | 70 | 108 | 0.0 | 0.0 | 0.00 | 0.00 | 0.00 | 42 | 985.7 |
| 20260508194323 | 70 | 108 | 0.0 | 0.0 | 0.00 | 0.00 | 0.00 | 42 | 985.6 |
| 20260508192337 | 70 | 108 | 0.0 | 0.0 | 0.00 | 0.00 | 0.00 | 45 | 985.3 |
| 20260508191338 | 70 | 108 | 0.0 | 0.0 | 0.00 | 0.00 | 0.00 | 46 | 985.1 |
| 20260508190313 | 70 | 108 | 0.0 | 0.0 | 0.00 | 0.00 | 0.00 | 46 | 985.1 |